Regional Weather Roundup
Issued by NWS

Home | Current Version | Previous Version | Graphics & Text | Print | Product List | Glossary On
Versions: 1 2 3 4 5 6 7 8 9 10 11 12 13 14 15 16 17 18 19 20 21 22 23 24 25 26 27 28 29 30 31 32 33 34 35 36 37 38 39 40 41 42 43 44 45 46 47 48 49 50
466
ASUS43 KDMX 240201
RWRIA

WEATHER ROUNDUP FOR IOWA
NATIONAL WEATHER SERVICE DES MOINES IA
800 PM CST FRI FEB 23 2018

NOTE: "FAIR" INDICATES FEW OR NO CLOUDS BELOW 12,000 FEET WITH NO
SIGNIFICANT WEATHER AND/OR OBSTRUCTIONS TO VISIBILITY.

* - THESE STATIONS ARE NOT NWS STATIONS...THUS NOT UNDER NWS
QUALITY CONTROL.  THEY ALSO DO NOT REPORT WEATHER SUCH
AS PRECIPITATION OR FOG.

IAZ001>003-012>014-020>022-031>034-043>046-240300-
   NORTHWEST IOWA

CITY           SKY/WX    TMP DP  RH WIND       PRES   REMARKS
CARROLL *      CLOUDY    21  19  93 N12       30.28R WCI   9
CHEROKEE *     CLOUDY    21  20  97 N8        30.28F WCI  11
DENISON *      CLOUDY    19  19 100 N7        30.30R WCI  10
LE MARS *      CLOUDY    19  19 100 N9        30.30S WCI   9
ORANGE CITY *  CLOUDY    19  19 100 N6        30.28S FOG     WCI  11
SHELDON *      CLOUDY    19  19 100 N10       30.27S WCI   8
SIOUX CITY     CLOUDY    20  18  92 N8        30.29F WCI  10
SPENCER        CLOUDY    22  19  89 NW13      30.28F WCI  10
STORM LAKE *   CLEAR     21  21 100 N13       30.26F WCI   9
$$

IAZ055>058-069>071-079>083-090>094-240300-
   SOUTHWEST IOWA

CITY           SKY/WX    TMP DP  RH WIND       PRES   REMARKS
ATLANTIC *     CLOUDY    25  23  93 VRB6G14   30.28S WCI  18
AUDUBON *      CLOUDY    21  18  86 N9        30.28R WCI  11
CLARINDA *     CLOUDY    30  30 100 N8        30.29S WCI  23
COUNCIL BLFS * CLOUDY    23  23 100 NE8       30.27R FOG     WCI  14
CRESTON *      CLOUDY    28  27  93 NE10      30.27R WCI  19
HARLAN  *      CLOUDY    21  21 100 NE13      30.31S WCI   9
LAMONI         CLOUDY    32  27  81 NE3       30.26S
RED OAK *      CLOUDY    28  25  86 NE9       30.29R WCI  20
SHENANDOAH *   CLOUDY    30  27  86 NE9       30.29R WCI  22
$$

IAZ047>049-059>061-072>074-084-240300-
   CENTRAL IOWA

CITY           SKY/WX    TMP DP  RH WIND       PRES   REMARKS
AMES           CLOUDY    25  21  85 N15       30.28S WCI  13
ANKENY *       CLOUDY    25  23  93 CALM      30.31R
BOONE *        CLOUDY    23  21  93 NE18      30.27R WCI   9
CHARITON *     CLEAR     28  27  93 N7        30.29R WCI  21
DES MOINES     CLOUDY    26  22  84 N6        30.30R WCI  19
GRINNELL*      MOCLDY    27  25  91 N6        30.29R WCI  21
KNOXVILLE *    PTCLDY    27  23  86 N8        30.28R WCI  18
MARSHALLTOWN   MOCLDY    25  23  92 N10       30.27F WCI  15
NEWTON *       CLOUDY    27  25  93 N9        30.29R WCI  17
PELLA *        CLOUDY    28  25  87 N8        30.30R WCI  20
PERRY *        CLOUDY    23  22  96 N8        30.30R WCI  14
$$

IAZ004>006-015-016-023>025-035-036-240300-
   NORTH CENTRAL IOWA

CITY           SKY/WX    TMP DP  RH WIND       PRES   REMARKS
CLARION *      CLOUDY    18  18 100 CALM      30.29S
ESTHERVILLE    CLOUDY    10  10 100 NW9       30.28S WCI  -3
FORT DODGE *   CLOUDY    20  18  92 N5        30.29F WCI  13
MASON CITY     CLOUDY    16  14  92 NW7       30.29S WCI   6
FOREST CITY *  FAIR      16  14  93 NW5       30.28S WCI   9
WEBSTER CITY * CLOUDY    21  19  93 N14       30.26F WCI   8
IOWA FALLS *   CLOUDY    25  22  90 N12       30.28F WCI  14
$$

IAZ007>011-017>019-026>030-037>042-050>054-066-240300-
   NORTHEAST IOWA

CITY           SKY/WX    TMP DP  RH WIND       PRES   REMARKS
CEDAR RAPIDS   FAIR      28  23  81 NW5       30.26S WCI  23
CHARLES CITY * FAIR      23  23 100 NW7       30.28F WCI  15
CLINTON *      FAIR      30  28  92 W5        30.28S WCI  25
DECORAH *      FAIR      25  23  93 NW8       30.26F WCI  16
DUBUQUE        FAIR      29  23  78 N9        30.24S WCI  20
MONTICELLO *   FAIR      28  25  86 NW7       30.26S WCI  21
OELWEIN *      FAIR      27  27 100 NW12      30.27S WCI  16
WATERLOO       FAIR      25  22  88 NW12      30.28F WCI  14
$$

IAZ064-065-067-068-078-240300-
   EAST CENTRAL IOWA

CITY           SKY/WX    TMP DP  RH WIND       PRES   REMARKS
DAVENPORT      FAIR      32  27  81 NW5       30.29S WCI  27
IOWA CITY      FAIR      30  24  78 W3        30.31R
MT. PLEASANT * PTCLDY    32  30  93 N6        30.28R WCI  26
MUSCATINE *    FAIR      32  27  80 NW5       30.30R WCI  27
QUAD CITIES    FAIR      33  28  81 NW3       30.28R
$$

IAZ062-063-075>077-085>089-095>099-240300-
   SOUTHEAST IOWA

CITY           SKY/WX    TMP DP  RH WIND       PRES   REMARKS
BURLINGTON     CLOUDY    33  29  85 N3        30.27S
FAIRFIELD *    MOCLDY    30  28  93 N6        30.28R WCI  24
FORT MADISON * CLOUDY    34  30  86 CALM      30.29R
KEOKUK *       PTCLDY    34  32  93 CALM      30.28R
OSKALOOSA *    FAIR      29  27  91 N8        30.29R WCI  21
OTTUMWA        CLOUDY    30  26  85 N7        30.28R WCI  23
WASHINGTON *   CLOUDY    30  30 100 N7        30.29S WCI  23
$$

ABBREVIATIONS USED IN REMARKS
   TC - TEMPERATURES IN CELSIUS
  WCI - WIND CHILL INDEX
   HX - HEAT INDEX
  VSB - VISIBILITY
$$





USA.gov is the U.S. government's official web portal to all federal, state and local government web resources and services.